Time,TemperatureF,DewpointF,PressureIn,WindDirection,WindDirectionDegrees,WindSpeedMPH,WindSpeedGustMPH,Humidity,HourlyPrecipIn,Conditions,Clouds,dailyrainin,SoftwareType,DateUTC
2013-02-07 00:02:00,25.0,20.0,30.25,ESE,113,5.0,8.0,80,0.00,,,0.01,,2013-02-07 05:02:00,
2013-02-07 00:12:00,25.0,20.0,30.25,ESE,113,5.0,8.0,80,0.00,,,0.01,,2013-02-07 05:12:00,
2013-02-07 00:21:00,26.0,21.0,30.26,ESE,113,2.0,6.0,82,0.00,,,0.01,,2013-02-07 05:21:00,
2013-02-07 00:32:00,26.0,21.0,30.26,ESE,113,2.0,6.0,82,0.00,,,0.01,,2013-02-07 05:32:00,
2013-02-07 00:41:00,25.0,20.0,30.30,ESE,113,0.0,2.0,82,0.00,,,0.01,,2013-02-07 05:41:00,
2013-02-07 00:42:00,26.0,21.0,30.26,ESE,113,2.0,6.0,82,0.00,,,0.01,,2013-02-07 05:42:00,
2013-02-07 00:52:00,26.0,21.0,30.30,ESE,111,0.0,2.0,82,0.00,,,0.01,,2013-02-07 05:52:00,
2013-02-07 01:02:00,25.0,20.0,30.30,ESE,113,0.0,2.0,82,0.00,,,0.01,,2013-02-07 06:02:00,
2013-02-07 01:11:00,25.0,20.0,30.30,ESE,113,0.0,2.0,82,0.00,,,0.01,,2013-02-07 06:11:00,
2013-02-07 01:22:00,25.0,20.0,30.30,ESE,113,0.0,2.0,82,0.00,,,0.01,,2013-02-07 06:22:00,
2013-02-07 01:32:00,25.0,20.0,30.30,ESE,113,0.0,2.0,82,0.00,,,0.01,,2013-02-07 06:32:00,
2013-02-07 01:53:00,23.0,19.0,30.29,NE,36,2.0,6.0,84,0.00,,,0.01,,2013-02-07 06:53:00,
2013-02-07 02:02:00,23.0,19.0,30.29,NE,36,2.0,6.0,84,0.00,,,0.01,,2013-02-07 07:02:00,
2013-02-07 02:11:00,23.0,19.0,30.29,NE,36,2.0,6.0,84,0.00,,,0.01,,2013-02-07 07:11:00,
2013-02-07 02:22:00,23.0,19.0,30.29,NE,36,2.0,6.0,84,0.00,,,0.01,,2013-02-07 07:22:00,
2013-02-07 02:32:00,22.0,18.0,30.28,NE,36,3.0,4.0,84,0.00,,,0.01,,2013-02-07 07:32:00,
2013-02-07 02:42:00,22.0,18.0,30.28,NE,36,3.0,4.0,84,0.00,,,0.01,,2013-02-07 07:42:00,
2013-02-07 02:52:00,22.0,18.0,30.28,NE,35,3.0,6.0,85,0.00,,,0.01,,2013-02-07 07:52:00,
2013-02-07 03:02:00,22.0,18.0,30.28,NE,36,4.0,5.0,85,0.00,,,0.01,,2013-02-07 08:02:00,
2013-02-07 03:11:00,22.0,18.0,30.28,NE,36,4.0,5.0,85,0.00,,,0.01,,2013-02-07 08:11:00,
2013-02-07 03:22:00,23.0,19.0,30.27,NE,36,5.0,6.0,85,0.00,,,0.01,,2013-02-07 08:22:00,
2013-02-07 03:32:00,23.0,19.0,30.26,NE,37,5.0,6.0,84,0.00,,,0.01,,2013-02-07 08:32:00,
2013-02-07 03:42:00,23.0,19.0,30.26,NE,37,5.0,6.0,84,0.00,,,0.01,,2013-02-07 08:42:00,
2013-02-07 03:52:00,24.0,19.0,30.24,NE,54,10.0,12.0,82,0.00,,,0.01,,2013-02-07 08:52:00,
2013-02-07 04:02:00,24.0,19.0,30.22,ENE,65,9.0,13.0,81,0.00,,,0.01,,2013-02-07 09:02:00,
2013-02-07 04:11:00,24.0,19.0,30.22,ENE,65,9.0,13.0,81,0.00,,,0.01,,2013-02-07 09:11:00,
2013-02-07 04:21:00,25.0,20.0,30.23,East,82,4.0,10.0,80,0.00,,,0.01,,2013-02-07 09:21:00,
2013-02-07 04:32:00,25.0,20.0,30.24,ESE,102,1.0,10.0,80,0.00,,,0.01,,2013-02-07 09:32:00,
2013-02-07 04:42:00,25.0,20.0,30.24,ESE,102,1.0,10.0,80,0.00,,,0.01,,2013-02-07 09:42:00,
2013-02-07 04:52:00,25.0,20.0,30.25,East,97,3.0,4.0,81,0.00,,,0.01,,2013-02-07 09:52:00,
2013-02-07 05:02:00,25.0,20.0,30.25,East,97,3.0,4.0,81,0.00,,,0.01,,2013-02-07 10:02:00,
2013-02-07 05:11:00,25.0,20.0,30.25,East,97,3.0,4.0,81,0.00,,,0.01,,2013-02-07 10:11:00,
2013-02-07 05:22:00,24.0,19.0,30.24,North,360,5.0,6.0,82,0.00,,,0.01,,2013-02-07 10:22:00,
2013-02-07 05:32:00,24.0,19.0,30.24,North,360,5.0,6.0,82,0.00,,,0.01,,2013-02-07 10:32:00,
2013-02-07 05:42:00,24.0,19.0,30.24,North,360,5.0,6.0,82,0.00,,,0.01,,2013-02-07 10:42:00,
2013-02-07 05:52:00,25.0,21.0,30.24,NNE,28,6.0,10.0,83,0.00,,,0.01,,2013-02-07 10:52:00,
2013-02-07 06:01:00,25.0,21.0,30.24,NNE,30,5.0,6.0,83,0.00,,,0.01,,2013-02-07 11:01:00,
2013-02-07 06:11:00,25.0,21.0,30.24,NNE,30,5.0,6.0,83,0.00,,,0.01,,2013-02-07 11:11:00,
2013-02-07 06:23:00,24.0,20.0,30.23,NE,45,4.0,7.0,83,0.00,,,0.01,,2013-02-07 11:23:00,
2013-02-07 06:32:00,24.0,20.0,30.24,NE,45,1.0,15.0,83,0.00,,,0.01,,2013-02-07 11:32:00,
2013-02-07 06:44:00,24.0,20.0,30.24,NE,45,1.0,15.0,83,0.00,,,0.01,,2013-02-07 11:44:00,
2013-02-07 06:53:00,24.0,20.0,30.24,NE,45,1.0,15.0,83,0.00,,,0.01,,2013-02-07 11:53:00,
2013-02-07 07:02:00,24.0,20.0,30.24,NE,45,3.0,6.0,84,0.00,,,0.01,,2013-02-07 12:02:00,
2013-02-07 07:11:00,24.0,20.0,30.24,NE,45,3.0,6.0,84,0.00,,,0.01,,2013-02-07 12:11:00,
2013-02-07 07:22:00,25.0,21.0,30.23,NE,45,3.0,4.0,85,0.00,,,0.01,,2013-02-07 12:22:00,
2013-02-07 07:33:00,25.0,21.0,30.24,NE,45,2.0,4.0,85,0.00,,,0.01,,2013-02-07 12:33:00,
2013-02-07 07:42:00,25.0,21.0,30.24,NE,45,2.0,4.0,85,0.00,,,0.01,,2013-02-07 12:42:00,
2013-02-07 07:53:00,25.0,21.0,30.22,NE,45,4.0,4.0,85,0.00,,,0.01,,2013-02-07 12:53:00,
2013-02-07 08:03:00,25.0,21.0,30.22,NE,45,4.0,5.0,84,0.00,,,0.01,,2013-02-07 13:03:00,
2013-02-07 08:12:00,25.0,21.0,30.22,NE,45,4.0,5.0,84,0.00,,,0.01,,2013-02-07 13:12:00,
2013-02-07 08:22:00,27.0,23.0,30.21,ENE,58,7.0,11.0,84,0.00,,,0.01,,2013-02-07 13:22:00,
2013-02-07 08:32:00,27.0,23.0,30.21,East,81,6.0,10.0,83,0.00,,,0.01,,2013-02-07 13:32:00,
2013-02-07 08:42:00,27.0,23.0,30.21,East,81,6.0,10.0,83,0.00,,,0.01,,2013-02-07 13:42:00,
2013-02-07 08:52:00,28.0,24.0,30.20,ENE,71,6.0,11.0,83,0.00,,,0.01,,2013-02-07 13:52:00,
2013-02-07 09:01:00,28.0,23.0,30.20,ENE,61,5.0,9.0,82,0.00,,,0.01,,2013-02-07 14:01:00,
2013-02-07 09:11:00,28.0,23.0,30.20,ENE,61,5.0,9.0,82,0.00,,,0.01,,2013-02-07 14:11:00,
2013-02-07 09:22:00,29.0,24.0,30.20,ENE,78,5.0,9.0,81,0.00,,,0.01,,2013-02-07 14:22:00,
2013-02-07 09:32:00,29.0,24.0,30.20,ENE,78,5.0,9.0,81,0.00,,,0.01,,2013-02-07 14:32:00,
2013-02-07 09:42:00,29.0,24.0,30.20,ENE,78,5.0,9.0,81,0.00,,,0.01,,2013-02-07 14:42:00,
2013-02-07 09:52:00,31.0,26.0,30.19,East,100,11.0,14.0,80,0.00,,,0.01,,2013-02-07 14:52:00,
2013-02-07 10:02:00,31.0,26.0,30.19,East,94,5.0,14.0,80,0.00,,,0.01,,2013-02-07 15:02:00,
2013-02-07 10:22:00,31.0,26.0,30.19,ESE,105,6.0,9.0,80,0.00,,,0.01,,2013-02-07 15:22:00,
2013-02-07 10:32:00,31.0,26.0,30.19,ESE,105,6.0,9.0,80,0.00,,,0.01,,2013-02-07 15:32:00,
2013-02-07 10:42:00,31.0,26.0,30.19,ESE,105,6.0,9.0,80,0.00,,,0.01,,2013-02-07 15:42:00,
2013-02-07 10:52:00,32.0,27.0,30.18,East,101,4.0,10.0,80,0.00,,,0.01,,2013-02-07 15:52:00,
2013-02-07 11:01:00,33.0,27.0,30.17,East,100,5.0,6.0,79,0.00,,,0.01,,2013-02-07 16:01:00,
2013-02-07 11:11:00,33.0,27.0,30.17,East,100,5.0,6.0,79,0.00,,,0.01,,2013-02-07 16:11:00,
2013-02-07 11:22:00,33.0,27.0,30.17,East,87,3.0,5.0,79,0.00,,,0.01,,2013-02-07 16:22:00,
2013-02-07 11:32:00,33.0,27.0,30.17,East,87,3.0,5.0,79,0.00,,,0.01,,2013-02-07 16:32:00,
2013-02-07 11:42:00,33.0,27.0,30.17,East,87,3.0,5.0,79,0.00,,,0.01,,2013-02-07 16:42:00,
2013-02-07 11:52:00,37.0,29.0,30.17,NE,54,4.0,6.0,73,0.00,,,0.01,,2013-02-07 16:52:00,
2013-02-07 12:01:00,37.0,30.0,30.16,NE,53,4.0,5.0,75,0.00,,,0.01,,2013-02-07 17:01:00,
2013-02-07 12:11:00,38.0,31.0,30.13,NE,53,4.0,6.0,75,0.00,,,0.01,,2013-02-07 17:11:00,
2013-02-07 12:21:00,38.0,31.0,30.13,NE,53,4.0,6.0,75,0.00,,,0.01,,2013-02-07 17:21:00,
2013-02-07 12:32:00,38.0,30.0,30.12,NE,46,4.0,7.0,73,0.00,,,0.01,,2013-02-07 17:32:00,
2013-02-07 12:43:00,38.0,30.0,30.12,NE,46,4.0,7.0,73,0.00,,,0.01,,2013-02-07 17:43:00,
2013-02-07 12:52:00,40.0,32.0,30.11,East,96,4.0,7.0,74,0.00,,,0.00,,2013-02-07 17:52:00,
2013-02-07 13:02:00,42.0,34.0,30.12,East,95,1.0,4.0,72,0.00,,,0.00,,2013-02-07 18:02:00,
2013-02-07 13:23:00,45.0,34.0,30.11,ESE,110,3.0,4.0,65,0.00,,,0.00,,2013-02-07 18:23:00,
2013-02-07 13:32:00,44.0,33.0,30.09,ESE,121,2.0,6.0,65,0.00,,,0.00,,2013-02-07 18:32:00,
2013-02-07 13:52:00,46.0,34.0,30.08,SSE,158,1.0,2.0,62,0.00,,,0.00,,2013-02-07 18:52:00,
2013-02-07 14:01:00,48.0,34.0,30.08,SSE,157,1.0,2.0,58,0.00,,,0.00,,2013-02-07 19:01:00,
2013-02-07 14:22:00,48.0,34.0,30.06,SSE,159,1.0,3.0,59,0.00,,,0.00,,2013-02-07 19:22:00,
2013-02-07 14:32:00,49.0,36.0,30.05,NE,49,3.0,5.0,60,0.00,,,0.00,,2013-02-07 19:32:00,
2013-02-07 14:52:00,45.0,34.0,30.05,NE,49,3.0,5.0,64,0.00,,,0.00,,2013-02-07 19:52:00,
2013-02-07 15:01:00,46.0,35.0,30.03,NE,44,4.0,6.0,64,0.00,,,0.00,,2013-02-07 20:01:00,
2013-02-07 15:22:00,43.0,34.0,30.02,NE,42,6.0,9.0,69,0.00,,,0.00,,2013-02-07 20:22:00,
2013-02-07 15:32:00,44.0,36.0,30.02,NE,36,5.0,8.0,73,0.00,,,0.00,,2013-02-07 20:32:00,
2013-02-07 15:42:00,44.0,36.0,30.02,NE,36,5.0,8.0,73,0.00,,,0.00,,2013-02-07 20:42:00,
2013-02-07 15:52:00,45.0,35.0,30.01,NE,36,6.0,7.0,69,0.00,,,0.00,,2013-02-07 20:52:00,
2013-02-07 16:02:00,44.0,35.0,30.01,NE,39,5.0,7.0,71,0.00,,,0.00,,2013-02-07 21:02:00,
2013-02-07 16:11:00,44.0,35.0,30.01,NE,39,5.0,7.0,71,0.00,,,0.00,,2013-02-07 21:11:00,
2013-02-07 16:22:00,44.0,36.0,30.00,NE,38,5.0,6.0,72,0.00,,,0.00,,2013-02-07 21:22:00,
2013-02-07 16:32:00,43.0,36.0,30.00,NE,40,3.0,6.0,75,0.00,,,0.00,,2013-02-07 21:32:00,
2013-02-07 16:42:00,43.0,36.0,30.00,NE,40,3.0,6.0,75,0.00,,,0.00,,2013-02-07 21:42:00,
2013-02-07 16:52:00,43.0,36.0,29.99,NE,41,6.0,7.0,75,0.00,,,0.00,,2013-02-07 21:52:00,
2013-02-07 17:02:00,43.0,36.0,29.99,NE,41,6.0,7.0,75,0.00,,,0.00,,2013-02-07 22:02:00,
2013-02-07 17:11:00,43.0,36.0,29.99,NE,41,6.0,7.0,75,0.00,,,0.00,,2013-02-07 22:11:00,
2013-02-07 17:21:00,41.0,35.0,29.98,NE,40,3.0,6.0,78,0.00,,,0.00,,2013-02-07 22:21:00,
2013-02-07 17:32:00,41.0,35.0,29.99,NE,40,2.0,3.0,79,0.00,,,0.00,,2013-02-07 22:32:00,
2013-02-07 17:42:00,41.0,35.0,29.99,NE,40,2.0,3.0,79,0.00,,,0.00,,2013-02-07 22:42:00,
2013-02-07 17:52:00,41.0,35.0,29.97,NE,40,3.0,4.0,79,0.00,,,0.00,,2013-02-07 22:52:00,
2013-02-07 18:02:00,41.0,35.0,29.98,NE,40,2.0,3.0,80,0.00,,,0.00,,2013-02-07 23:02:00,
2013-02-07 18:11:00,41.0,35.0,29.98,NE,40,2.0,3.0,80,0.00,,,0.00,,2013-02-07 23:11:00,
2013-02-07 18:22:00,39.0,34.0,29.98,NE,40,3.0,10.0,81,0.00,,,0.00,,2013-02-07 23:22:00,
2013-02-07 18:32:00,39.0,34.0,29.97,NE,40,3.0,14.0,82,0.00,,,0.00,,2013-02-07 23:32:00,
2013-02-07 18:42:00,39.0,34.0,29.97,NE,40,3.0,14.0,82,0.00,,,0.00,,2013-02-07 23:42:00,
2013-02-07 18:51:00,38.0,33.0,29.95,ENE,61,4.0,6.0,83,0.00,,,0.00,,2013-02-07 23:51:00,
2013-02-07 18:52:00,38.0,33.0,29.97,NE,40,3.0,4.0,83,0.00,,,0.00,,2013-02-07 23:52:00,
2013-02-07 19:02:00,38.0,34.0,29.96,NE,40,4.0,6.0,84,0.00,,,0.00,,2013-02-08 00:02:00,
2013-02-07 19:11:00,38.0,34.0,29.96,NE,40,4.0,6.0,84,0.00,,,0.00,,2013-02-08 00:11:00,
2013-02-07 19:22:00,38.0,33.0,29.95,ENE,61,4.0,6.0,83,0.00,,,0.00,,2013-02-08 00:22:00,
2013-02-07 19:32:00,38.0,33.0,29.95,ENE,61,4.0,6.0,83,0.00,,,0.00,,2013-02-08 00:32:00,
2013-02-07 19:42:00,38.0,33.0,29.95,ENE,61,4.0,6.0,83,0.00,,,0.00,,2013-02-08 00:42:00,
2013-02-07 20:21:00,39.0,34.0,29.92,East,98,6.0,11.0,83,0.00,,,0.00,,2013-02-08 01:21:00,
2013-02-07 20:32:00,38.0,34.0,29.92,East,100,5.0,9.0,84,0.00,,,0.00,,2013-02-08 01:32:00,
2013-02-07 20:42:00,38.0,34.0,29.92,East,100,5.0,9.0,84,0.00,,,0.00,,2013-02-08 01:42:00,
2013-02-07 20:52:00,38.0,34.0,29.90,ESE,103,6.0,9.0,85,0.00,,,0.00,,2013-02-08 01:52:00,
2013-02-07 21:01:00,38.0,34.0,29.90,ESE,108,6.0,10.0,85,0.00,,,0.00,,2013-02-08 02:01:00,
2013-02-07 21:11:00,38.0,34.0,29.90,ESE,108,6.0,10.0,85,0.00,,,0.00,,2013-02-08 02:11:00,
2013-02-07 21:21:00,39.0,35.0,29.88,ESE,106,9.0,11.0,84,0.00,,,0.00,,2013-02-08 02:21:00,
2013-02-07 21:32:00,39.0,34.0,29.88,ESE,116,6.0,11.0,83,0.00,,,0.00,,2013-02-08 02:32:00,
2013-02-07 21:42:00,39.0,34.0,29.88,ESE,116,6.0,11.0,83,0.00,,,0.00,,2013-02-08 02:42:00,
2013-02-07 21:52:00,39.0,34.0,29.88,ESE,116,6.0,11.0,83,0.00,,,0.00,,2013-02-08 02:52:00,
2013-02-07 22:02:00,39.0,34.0,29.88,ESE,116,6.0,11.0,83,0.00,,,0.00,,2013-02-08 03:02:00,
2013-02-07 22:23:00,41.0,36.0,29.85,SE,125,10.0,14.0,81,0.00,,,0.00,,2013-02-08 03:23:00,
2013-02-07 22:32:00,41.0,35.0,29.84,ESE,122,12.0,17.0,80,0.00,,,0.00,,2013-02-08 03:32:00,
2013-02-07 22:42:00,41.0,35.0,29.84,ESE,122,12.0,17.0,80,0.00,,,0.00,,2013-02-08 03:42:00,
2013-02-07 22:52:00,41.0,35.0,29.83,SE,126,10.0,13.0,79,0.00,,,0.00,,2013-02-08 03:52:00,
2013-02-07 23:02:00,42.0,36.0,29.83,SE,133,10.0,13.0,78,0.00,,,0.00,,2013-02-08 04:02:00,
2013-02-07 23:11:00,42.0,36.0,29.83,SE,133,10.0,13.0,78,0.00,,,0.00,,2013-02-08 04:11:00,
2013-02-07 23:21:00,42.0,36.0,29.82,SE,125,10.0,15.0,79,0.00,,,0.00,,2013-02-08 04:21:00,
2013-02-07 23:32:00,41.0,35.0,29.82,ESE,123,9.0,12.0,80,0.00,,,0.00,,2013-02-08 04:32:00,
2013-02-07 23:42:00,41.0,35.0,29.82,ESE,123,9.0,12.0,80,0.00,,,0.00,,2013-02-08 04:42:00,
2013-02-07 23:52:00,42.0,36.0,29.80,ESE,120,9.0,13.0,80,0.00,,,0.00,,2013-02-08 04:52:00,